Regional Weather Roundup
Issued by NWS

Home | Current Version | Previous Version | Graphics & Text | Print | Product List | Glossary On
Versions: 1 2 3 4 5 6 7 8 9 10 11 12 13 14 15 16 17 18 19 20 21 22 23 24 25 26 27 28 29 30 31 32 33 34 35 36 37 38 39 40 41 42 43 44 45 46 47 48
000
ASUS45 KBOU 201807
RWRCO

WEATHER ROUNDUP FOR COLORADO
NATIONAL WEATHER SERVICE DENVER/BOULDER CO
1200 PM MDT SAT SEP 20 2014

NOTE: "FAIR" INDICATES FEW OR NO CLOUDS BELOW 12000 FEET WITH NO
SIGNIFICANT WEATHER AND/OR OBSTRUCTIONS TO VISIBILITY.

COZ001>005-013-030-031-201900-
...NORTHWEST COLORADO...

CITY           SKY/WX    TMP DP  RH WIND       PRES   REMARKS
CRAIG          SUNNY     71  42  35 VRB5      30.32F
HAYDEN         SUNNY     72  37  28 CALM      30.33F
MEEKER         NOT AVBL
MOUNT WERNER   NOT AVBL
STEAMBOAT SPGS SUNNY     68  42  40 CALM      30.35F
WALDEN         SUNNY     66  28  24 W5        30.42F
$$

COZ006>008-011-201900-
...WEST CENTRAL VALLEYS...

CITY           SKY/WX    TMP DP  RH WIND       PRES   REMARKS
GRAND JUNCTION SUNNY     81  44  27 S9        30.16F
MONTROSE       SUNNY     77  46  33 N7        30.23F
EAGLE          MOSUNNY   70  41  35 CALM      30.33F
RIFLE          SUNNY     75  45  34 N3        30.23F
DELTA          SUNNY     78  44  29 W3        30.19F
NUCLA          SUNNY     77  41  27 CALM      30.24F
$$

COZ017>023-064>068-201900-
...SOUTHWEST COLORADO...

CITY           SKY/WX    TMP DP  RH WIND       PRES   REMARKS
DURANGO        SUNNY     78  43  28 VRB5      30.26F
CORTEZ         SUNNY     79  46  31 VRB3      30.20F
PAGOSA SPRINGS SUNNY     77  33  20 SW5       30.33F
TELLURIDE      NOT AVBL
WOLF CREEK PAS PTSUNNY   54  32  43 NE5       30.65F
$$

COZ009-010-012-014-032>034-037-058>063-201900-
...CENTRAL COLORADO...

CITY           SKY/WX    TMP DP  RH WIND       PRES   REMARKS
ASPEN          SUNNY     74  42  31 VRB5      30.35F
BUENA VISTA    SUNNY     74  35  23 SE5       30.37F
COPPER MTN     MOSUNNY   59  30  33 W12       30.69S
BERTHOUD PASS  FAIR      50  46  87 N7        30.73S
COTTONWOOD PAS SUNNY     70  32  24 S5G17     30.51F
GUNNISON       SUNNY     70  43  37 CALM      30.38F
KREMMLING      SUNNY     70  37  30 CALM      30.39F
LEADVILLE      SUNNY     65  30  27 W7        30.50F
MONARCH PASS   MOSUNNY   54  36  50 NE5       30.77S
SALIDA         NOT AVBL
SUNLIGHT       SUNNY     61  37  41 CALM      30.62R
WILKERSON PASS NOT AVBL
$$

COZ069>075-201900-
...SAN LUIS VALLEY/SANGRE DE CRISTO MOUNTAINS...

CITY           SKY/WX    TMP DP  RH WIND       PRES   REMARKS
ALAMOSA        SUNNY     74  41  30 NW6       30.33F
LA VETA PASS   SUNNY     66  36  32 NE14G22   30.55R
SAGUACHE       NOT AVBL
$$

COZ035-036-038>040-201900-
...NORTHERN COLORADO FRONT RANGE...

CITY           SKY/WX    TMP DP  RH WIND       PRES   REMARKS
DENVER INTL AP MOSUNNY   71  49  45 CALM      30.27F
DMNS CITY PARK   N/A     72  49  42 E3        30.26F
AURORA         MOSUNNY   70  49  47 N5        30.29F
FRONT RANGE AP NOT AVBL
ERIE MUNI ARPT SUNNY     72  46  39 CALM      30.25F
BOULDER MUN AP SUNNY     72  46  40 CALM      30.26F
CENTENNIAL     MOSUNNY   70  48  45 N6        30.29F
BROOMFIELD     MOSUNNY   72  46  40 CALM      30.29F
FORT COLLINS   SUNNY     73  48  40 S9        30.26S
LONGMONT       SUNNY     77  48  35 CALM      30.26F
$$

COZ041-046-047-076>085-087-088-201900-
...PIKES PEAK/PALMER DIVIDE AND SOUTHERN FOOTHILLS...

CITY           SKY/WX    TMP DP  RH WIND       PRES   REMARKS
COLO. SPRINGS  MOSUNNY   81  43  26 W8        30.28S
A. F. ACADEMY  SUNNY     74  46  36 N13G18    30.31S
ELLICOTT       NOT AVBL
FALCON         SUNNY     74  44  33 N12       30.34S
FORT CARSON    SUNNY     81  45  28 VRB5      30.25S
LIMON          SUNNY     75  50  41 VRB7      30.25S
MONUMENT HILL  SUNNY     68  46  45 N8        30.35F
TRINIDAD       SUNNY     80  50  34 E12G20    30.24S
$$

COZ042>045-048>051-090-091-201900-
...NORTHEAST COLORADO...

CITY           SKY/WX    TMP DP  RH WIND       PRES   REMARKS
GREELEY ARPT   SUNNY     75  48  38 S7        30.25F
AKRON          SUNNY     75  49  39 VRB5G16   30.22S
BURLINGTON     SUNNY     78  51  38 NE15G24   30.17R
WRAY           SUNNY     81  46  28 NE14      30.15F
STERLING       SUNNY     79  50  36 NE6       30.19S
HOLYOKE        SUNNY     81  46  30 NE10      30.17S
FORT MORGAN    SUNNY     74  47  37 NE6       30.24S
$$

COZ086-089-092>099-201900-
...SOUTHEAST COLORADO...

CITY           SKY/WX    TMP DP  RH WIND       PRES   REMARKS
PUEBLO         SUNNY     83  47  28 SE12      30.18R
LA JUNTA       SUNNY     85  50  29 NE16G23   30.15S
LAMAR          SUNNY     86  55  34 NE13      30.08S
SPRINGFIELD      N/A     85  54  34 N14G22    30.12S
$$



USA.gov is the U.S. government's official web portal to all federal, state and local government web resources and services.